Regional Weather Roundup
Issued by NWS

Home | Current Version | Previous Version | Text Only | Print | Product List | Glossary Off
Versions: 1 2 3 4 5 6 7 8 9 10 11 12 13 14 15 16 17 18 19 20 21 22 23 24 25 26 27 28 29 30 31 32 33 34 35 36 37 38 39 40 41 42 43 44 45 46 47 48 49 50

773
ASUS43 KFSD 210610
RWRSD

WEATHER ROUNDUP FOR SOUTH DAKOTA
NATIONAL WEATHER SERVICE SIOUX FALLS SD
100 AM CDT THU SEP 21 2017

NOTE: "FAIR" INDICATES FEW OR NO CLOUDS BELOW 12,000 FEET WITH NO
SIGNIFICANT WEATHER AND/OR OBSTRUCTIONS TO VISIBILITY.


SDZ001>005-009-010-012>017-210700-
NORTHWEST AND NORTH CENTRAL SOUTH DAKOTA

CITY           SKY/WX    TMP DP  RH WIND       PRES   REMARKS
BUFFALO          N/A     58  34  40 S10       29.67S
FAITH            N/A     60  32  34 S15       29.74F
MOBRIDGE       CLEAR     53  40  61 SE9       29.76S
$$

SDZ012>016-024>037-041>051-057-063-072>074-210700-
SOUTHWEST AND SOUTH CENTRAL SOUTH DAKOTA

CITY           SKY/WX    TMP DP  RH WIND       PRES   REMARKS
RAPID CTY ARPT NOT AVBL
PIERRE         CLEAR     58  39  49 E10       29.78S
CUSTER         CLOUDY    56  28  34 S8        29.85F
ELLSWORTH AFB  MOCLDY    59  37  45 SE6       29.75F
PHILIP         CLEAR     58  39  49 CALM      29.76S
PINE RIDGE     CLEAR     65  34  31 S17G28    29.77F
SPEARFISH      FAIR      64  36  34 SW5       29.77F
WINNER         FAIR      64  43  46 S17G25    29.82F
$$

SDZ004>011-016>023-039-040-210700-
NORTHEAST SOUTH DAKOTA

CITY           SKY/WX    TMP DP  RH WIND       PRES   REMARKS
ABERDEEN       CLEAR     51  45  79 S9        29.83F
WATERTOWN      CLEAR     52  46  80 S9        29.89S
BROOKINGS      CLEAR     51  46  83 SE8       29.92R
SISSETON         N/A     48  46  93 E9        29.88S
$$

SDZ017-020-022-023-036>040-048>070-210700-
SOUTHEAST SOUTH DAKOTA

CITY           SKY/WX    TMP DP  RH WIND       PRES   REMARKS
SIOUX FALLS    CLEAR     50  48  93 CALM      29.92R
HURON          CLEAR     55  48  77 SE10      29.86S
CHAMBERLAIN    CLEAR     58  49  71 SE12      29.84F
MITCHELL       CLEAR     55  48  77 SE8       29.88S
YANKTON        CLEAR     54  50  86 CALM      29.90S
$$

ABBREVIATIONS USED IN REMARKS
   TC - TEMPERATURE IN CELSIUS
  WCI - WIND CHILL INDEX
   HX - HEAT INDEX
  VSB - VISIBILITY





USA.gov is the U.S. government's official web portal to all federal, state and local government web resources and services.